Chehalis, WA
on Friday, December 21, 2012

Friday
Previous Day Next Day
Daily Summary
 ActualAverage (KOLM)Record (KOLM)
Temperature
Mean Temperature °F 38°F  
Max Temperature 46°F 44°F 57°F (1980)
Min Temperature 33°F 32°F 0°F (1990)
Degree Days
Heating Degree Days 26 27  
Month to date heating degree days 556  
Since 1 July heating degree days 2001  
Cooling Degree Days 0 0  
Month to date cooling degree days 0  
Year to date cooling degree days 106  
Moisture
Dew Point 37°F   
Average Humidity 90    
Maximum Humidity 100    
Minimum Humidity 76    
Precipitation
Precipitation 0.02 in 0.23 in 1.69 in (1955)
Month to date precipitation 5.16  
Year to date precipitation 47.70  
Wind
Wind Speed 3 mph   
Max Wind Speed 16 mph   
Max Gust Speed 21 mph   
Visibility 9 miles   
Events Rain   

Key: T is trace of precipitation, MM is missing value
Source: NWS Daily Summary
Time(PST)TemperatureDew PointHumidity Pressure Visibility Wind DirectionWind SpeedGust SpeedPrecipitationEvents Conditions
12:15 AM 39.2°F 35.6°F 87% 29.81 in 10.0 miles Calm Calm - N/A   Overcast
12:35 AM 37.4°F 35.6°F 93% 29.81 in 10.0 miles South 4.6 mph - N/A   Overcast
12:55 AM 37.4°F 35.6°F 93% 29.80 in 10.0 miles Calm Calm - N/A   Overcast
1:15 AM 37.4°F 35.6°F 93% 29.80 in 10.0 miles Calm Calm - N/A   Overcast
1:35 AM 37.4°F 35.6°F 93% 29.79 in 10.0 miles SSW 3.5 mph - N/A   Overcast
1:55 AM 37.4°F 33.8°F 87% 29.79 in 10.0 miles Calm Calm - N/A   Overcast
2:15 AM 35.6°F 33.8°F 93% 29.79 in 10.0 miles Calm Calm - N/A   Overcast
2:35 AM 35.6°F 35.6°F 100% 29.79 in 10.0 miles Calm Calm - N/A   Overcast
2:55 AM 35.6°F 35.6°F 100% 29.78 in 10.0 miles Calm Calm - N/A   Overcast
3:15 AM 35.6°F 33.8°F 93% 29.78 in 10.0 miles Calm Calm - N/A   Scattered Clouds
3:35 AM 35.6°F 33.8°F 93% 29.78 in 7.0 miles ENE 3.5 mph - N/A   Clear
3:55 AM 33.8°F 32.0°F 93% 29.77 in 7.0 miles NE 3.5 mph - N/A   Clear
4:15 AM 33.8°F 32.0°F 93% 29.75 in 7.0 miles North 3.5 mph - N/A   Partly Cloudy
4:35 AM 33.8°F 32.0°F 93% 29.75 in 9.0 miles NNE 3.5 mph - N/A   Mostly Cloudy
4:55 AM 33.8°F 32.0°F 93% 29.75 in 9.0 miles ENE 4.6 mph - N/A   Overcast
5:15 AM 33.8°F 32.0°F 93% 29.75 in 10.0 miles ENE 4.6 mph - N/A   Overcast
5:35 AM 33.8°F 32.0°F 93% 29.75 in 10.0 miles NE 5.8 mph - N/A Rain Light Rain
5:55 AM 33.8°F 32.0°F 93% 29.74 in 9.0 miles NE 5.8 mph - N/A Rain Light Rain
6:15 AM 33.8°F 32.0°F 93% 29.75 in 10.0 miles NNE 3.5 mph - N/A Rain Light Rain
6:35 AM 33.8°F 32.0°F 93% 29.74 in 10.0 miles NE 4.6 mph - 0.01 in Rain Light Rain
6:55 AM 33.8°F 32.0°F 93% 29.74 in 10.0 miles Calm Calm - 0.01 in Rain Light Rain
7:15 AM 33.8°F 32.0°F 93% 29.74 in 9.0 miles Calm Calm - N/A   Overcast
7:35 AM 33.8°F 32.0°F 93% 29.74 in 10.0 miles Calm Calm - N/A   Overcast
7:55 AM 35.6°F 33.8°F 93% 29.74 in 10.0 miles Calm Calm - N/A   Overcast
8:15 AM 35.6°F 33.8°F 93% 29.74 in 10.0 miles WSW 3.5 mph - N/A Rain Light Rain
8:35 AM 35.6°F 33.8°F 93% 29.74 in 10.0 miles Calm Calm - 0.01 in Rain Light Rain
8:55 AM 35.6°F 35.6°F 100% 29.74 in 10.0 miles Calm Calm - 0.01 in Rain Light Rain
9:15 AM 37.4°F 35.6°F 93% 29.75 in 10.0 miles SSE 4.6 mph - N/A   Overcast
9:35 AM 37.4°F 35.6°F 93% 29.75 in 10.0 miles South 3.5 mph - N/A   Mostly Cloudy
9:55 AM 39.2°F 35.6°F 87% 29.76 in 10.0 miles Calm Calm - N/A   Overcast
10:15 AM 39.2°F 37.4°F 93% 29.77 in 7.0 miles Calm Calm - N/A   Overcast
10:35 AM 39.2°F 37.4°F 93% 29.77 in 10.0 miles South 4.6 mph - N/A   Overcast
10:55 AM 41.0°F 37.4°F 87% 29.77 in 10.0 miles South 6.9 mph - N/A   Overcast
11:15 AM 41.0°F 39.2°F 93% 29.77 in 10.0 miles South 8.1 mph - N/A   Overcast
11:35 AM 42.8°F 39.2°F 87% 29.77 in 10.0 miles SSW 5.8 mph - N/A   Overcast
11:55 AM 44.6°F 39.2°F 81% 29.76 in 10.0 miles South 10.4 mph - N/A   Overcast
12:15 PM 44.6°F 39.2°F 81% 29.76 in 10.0 miles South 12.7 mph - N/A   Overcast
12:35 PM 44.6°F 39.2°F 81% 29.75 in 5.0 miles South 16.1 mph - N/A   Haze
12:55 PM 44.6°F 39.2°F 81% 29.75 in 8.0 miles South 13.8 mph 20.7 mph N/A   Scattered Clouds
1:15 PM 46.4°F 39.2°F 76% 29.75 in 10.0 miles South 11.5 mph 17.3 mph N/A   Partly Cloudy
1:35 PM 46.4°F 39.2°F 76% 29.74 in 10.0 miles South 10.4 mph 17.3 mph N/A   Scattered Clouds
2:15 PM 46.4°F 39.2°F 76% 29.73 in 10.0 miles South 10.4 mph - N/A   Overcast
2:35 PM 46.4°F 39.2°F 76% 29.73 in 6.0 miles SSW 10.4 mph 17.3 mph N/A   Haze
2:55 PM 46.4°F 39.2°F 76% 29.74 in 5.0 miles South 10.4 mph - N/A   Haze
3:15 PM 46.4°F 39.2°F 76% 29.74 in 5.0 miles SSW 5.8 mph - N/A   Haze
3:35 PM 46.4°F 39.2°F 76% 29.74 in 8.0 miles Calm Calm - N/A   Overcast
3:55 PM 46.4°F 39.2°F 76% 29.74 in 10.0 miles SSW 3.5 mph - N/A   Overcast
4:15 PM 46.4°F 39.2°F 76% 29.73 in 5.0 miles Calm Calm - N/A   Haze
4:35 PM 44.6°F 39.2°F 81% 29.73 in 10.0 miles Calm Calm - N/A   Overcast
4:55 PM 44.6°F 41.0°F 87% 29.72 in 10.0 miles Calm Calm - N/A   Overcast
5:15 PM 44.6°F 41.0°F 87% 29.72 in 10.0 miles Calm Calm - N/A   Overcast
5:35 PM 42.8°F 41.0°F 93% 29.71 in 9.0 miles East 3.5 mph - N/A Rain Light Rain
6:15 PM 42.8°F 41.0°F 93% 29.70 in 7.0 miles Calm Calm - N/A   Overcast
6:35 PM 41.0°F 39.2°F 93% 29.69 in 10.0 miles NNW 4.6 mph - N/A   Overcast
6:55 PM 41.0°F 39.2°F 93% 29.69 in 10.0 miles Calm Calm - N/A   Overcast
7:15 PM 41.0°F 39.2°F 93% 29.69 in 8.0 miles WSW 3.5 mph - N/A   Overcast
7:35 PM 41.0°F 39.2°F 93% 29.69 in 6.0 miles Calm Calm - N/A   Overcast
7:55 PM 41.0°F 39.2°F 93% 29.69 in 9.0 miles Calm Calm - N/A   Mostly Cloudy
8:15 PM 41.0°F 39.2°F 93% 29.69 in 10.0 miles Calm Calm - N/A   Overcast
8:35 PM 41.0°F 39.2°F 93% 29.69 in 10.0 miles Calm Calm - N/A Rain Light Rain
8:55 PM 41.0°F 39.2°F 93% 29.70 in 10.0 miles Calm Calm - N/A Rain Light Rain
9:15 PM 41.0°F 39.2°F 93% 29.70 in 7.0 miles Calm Calm - N/A   Overcast
9:35 PM 41.0°F 39.2°F 93% 29.69 in 5.0 miles Calm Calm - N/A Rain Light Rain
9:55 PM 41.0°F 39.2°F 93% 29.68 in 9.0 miles North 3.5 mph - N/A   Overcast
10:15 PM 41.0°F 39.2°F 93% 29.68 in 8.0 miles NNW 3.5 mph - N/A   Mostly Cloudy
10:35 PM 41.0°F 39.2°F 93% 29.67 in 10.0 miles Calm Calm - N/A   Overcast
10:55 PM 39.2°F 39.2°F 100% 29.67 in 9.0 miles Calm Calm - N/A Rain Light Rain
11:15 PM 39.2°F 39.2°F 100% 29.66 in 9.0 miles ENE 4.6 mph - N/A   Mostly Cloudy
11:35 PM 39.2°F 39.2°F 100% 29.66 in 10.0 miles NNE 3.5 mph - N/A   Mostly Cloudy
11:55 PM 39.2°F 39.2°F 100% 29.65 in 5.0 miles NNW 3.5 mph - N/A   Overcast
Moon Phase
Dec. 21 Dec. 28 Jan. 04 Jan. 11 Jan. 18
Sunrise:07:53 AM (PST) Moon Rise:12:30 PM (PST)12/21
Sunset:04:26 PM (PST) Moon Set:01:30 AM (PST)12/21

Copyright © 2014 The Weather Underground, Inc.